PAL1811 RPVP-RPMD

Flight info

Callsign PAL1811
Flight time 1h 19m
Altitude 35000
Route SAIRA1E SAIRA DCT ZAM W10 LINAO LINAO2R
Aircraft A321/M-SDE3FGHIRWY/LB1

Departure

Time 2026-04-30 08:18
Airport Puerto Princesa International Airport / PAF Antonio Bautista Air Base (RPVP)

Arrival

Time 2026-04-30 09:37
Airport Francisco Bangoy International Airport (RPMD)
Time Latitude Longitude Altitude Speed Heading
2026-04-30 07:52 9.74507 118.74998 77 ft 0 kts
2026-04-30 07:55 9.74506 118.74998 77 ft 1 kts
2026-04-30 07:55 9.74492 118.74997 77 ft 2 kts
2026-04-30 07:55 9.74477 118.74996 77 ft 2 kts
2026-04-30 07:56 9.74462 118.74995 77 ft 2 kts
2026-04-30 07:56 9.74447 118.74995 77 ft 1 kts
2026-04-30 07:56 9.74437 118.74994 77 ft 2 kts 350°
2026-04-30 07:56 9.74423 118.75001 77 ft 2 kts 316°
2026-04-30 07:57 9.74414 118.75014 77 ft 2 kts 284°
2026-04-30 07:57 9.74413 118.75022 77 ft 1 kts 268°
2026-04-30 07:57 9.74413 118.75027 77 ft 0 kts 272°
2026-04-30 07:59 9.74413 118.75025 77 ft 1 kts 272°
2026-04-30 07:59 9.74415 118.74982 77 ft 10 kts 273°
2026-04-30 08:00 9.74422 118.74770 77 ft 15 kts 263°
2026-04-30 08:00 9.74353 118.74707 77 ft 14 kts 185°
2026-04-30 08:00 9.74263 118.74737 77 ft 14 kts 117°
2026-04-30 08:00 9.74254 118.74809 77 ft 17 kts 92°
2026-04-30 08:17 9.74247 118.74960 77 ft 62 kts 93°
2026-04-30 08:18 9.74216 118.75697 77 ft 142 kts 92°
2026-04-30 08:18 9.74172 118.76817 540 ft 169 kts 92°
2026-04-30 08:18 9.74136 118.78013 1492 ft 167 kts 92°
2026-04-30 08:18 9.74129 118.79112 2523 ft 150 kts 92°
2026-04-30 08:19 9.74133 118.80180 2893 ft 155 kts 92°
2026-04-30 08:19 9.74133 118.81342 3136 ft 169 kts 93°
2026-04-30 08:19 9.74130 118.82577 3414 ft 183 kts 93°
2026-04-30 08:19 9.74126 118.83934 3705 ft 198 kts 93°
2026-04-30 08:20 9.74121 118.85406 4001 ft 213 kts 93°
2026-04-30 08:20 9.74115 118.86968 4270 ft 230 kts 93°
2026-04-30 08:20 9.74108 118.88678 4540 ft 249 kts 92°
2026-04-30 08:20 9.74102 118.90504 5031 ft 258 kts 92°
2026-04-30 08:21 9.74098 118.92327 5646 ft 262 kts 92°
2026-04-30 08:21 9.74093 118.94205 6255 ft 266 kts 93°
2026-04-30 08:21 9.74087 118.96091 6840 ft 270 kts 93°
2026-04-30 08:21 9.74081 118.98019 7422 ft 274 kts 92°
2026-04-30 08:22 9.74074 118.99990 8003 ft 278 kts 92°
2026-04-30 08:22 9.74066 119.01975 8573 ft 282 kts 92°
2026-04-30 08:22 9.74059 119.03992 9134 ft 286 kts 92°
2026-04-30 08:22 9.74052 119.06033 9689 ft 289 kts 92°
2026-04-30 08:23 9.74044 119.08101 10239 ft 293 kts 91°
2026-04-30 08:23 9.74036 119.10169 10778 ft 296 kts 91°
2026-04-30 08:23 9.74029 119.12270 11313 ft 299 kts 91°
2026-04-30 08:23 9.74021 119.14426 11852 ft 301 kts 90°
2026-04-30 08:24 9.74013 119.16558 12376 ft 304 kts 90°
2026-04-30 08:24 9.74006 119.18715 12900 ft 306 kts 90°
2026-04-30 08:24 9.73999 119.20921 13428 ft 308 kts 90°
2026-04-30 08:24 9.73991 119.23112 13944 ft 311 kts 90°
2026-04-30 08:25 9.73983 119.25316 14456 ft 313 kts 90°
2026-04-30 08:25 9.73975 119.27550 14967 ft 315 kts 90°
2026-04-30 08:25 9.73967 119.29806 15474 ft 317 kts 90°
2026-04-30 08:25 9.73959 119.32058 15973 ft 319 kts 89°
2026-04-30 08:26 9.73950 119.34326 16468 ft 321 kts 89°
2026-04-30 08:26 9.73941 119.36591 16952 ft 323 kts 89°
2026-04-30 08:26 9.73930 119.38903 17440 ft 325 kts 89°
2026-04-30 08:26 9.73899 119.41225 17918 ft 327 kts 94°
2026-04-30 08:27 9.73350 119.43477 18351 ft 331 kts 116°
2026-04-30 08:27 9.72024 119.45385 18801 ft 332 kts 135°
2026-04-30 08:27 9.70343 119.47003 19265 ft 334 kts 138°
2026-04-30 08:27 9.68597 119.48599 19696 ft 336 kts 138°
2026-04-30 08:28 9.66835 119.50210 20131 ft 339 kts 137°
2026-04-30 08:28 9.65096 119.51814 20561 ft 341 kts 137°
2026-04-30 08:28 9.63325 119.53459 20992 ft 343 kts 137°
2026-04-30 08:28 9.61554 119.55113 21417 ft 345 kts 137°
2026-04-30 08:29 9.59788 119.56767 21833 ft 347 kts 136°
2026-04-30 08:29 9.58016 119.58428 22240 ft 349 kts 136°
2026-04-30 08:29 9.56189 119.60144 22548 ft 355 kts 136°
2026-04-30 08:29 9.54332 119.61889 22734 ft 365 kts 136°
2026-04-30 08:30 9.52434 119.63672 22920 ft 375 kts 136°
2026-04-30 08:30 9.50484 119.65504 23102 ft 385 kts 136°
2026-04-30 08:30 9.48472 119.67393 23282 ft 394 kts 136°
2026-04-30 08:30 9.46418 119.69321 23456 ft 403 kts 136°
2026-04-30 08:31 9.44321 119.71290 23642 ft 412 kts 136°
2026-04-30 08:31 9.42202 119.73278 23952 ft 416 kts 136°
2026-04-30 08:31 9.40048 119.75299 24353 ft 418 kts 136°
2026-04-30 08:31 9.37886 119.77326 24752 ft 420 kts 136°
2026-04-30 08:32 9.35726 119.79353 25133 ft 422 kts 136°
2026-04-30 08:32 9.33536 119.81406 25509 ft 424 kts 136°
2026-04-30 08:32 9.31348 119.83459 25873 ft 426 kts 136°
2026-04-30 08:32 9.29156 119.85515 26229 ft 428 kts 136°
2026-04-30 08:33 9.26943 119.87589 26581 ft 429 kts 136°
2026-04-30 08:33 9.24730 119.89665 26924 ft 431 kts 136°
2026-04-30 08:33 9.22512 119.91743 27260 ft 433 kts 136°
2026-04-30 08:33 9.20288 119.93828 27587 ft 434 kts 136°
2026-04-30 08:34 9.18053 119.95921 27908 ft 436 kts 136°
2026-04-30 08:34 9.15811 119.98023 28222 ft 438 kts 136°
2026-04-30 08:34 9.13545 120.00145 28530 ft 439 kts 136°
2026-04-30 08:34 9.11292 120.02254 28829 ft 441 kts 136°
2026-04-30 08:35 9.09011 120.04390 29113 ft 443 kts 136°
2026-04-30 08:35 9.06746 120.06511 29374 ft 445 kts 136°
2026-04-30 08:35 9.04439 120.08671 29625 ft 447 kts 136°
2026-04-30 08:35 9.02129 120.10832 29866 ft 449 kts 136°
2026-04-30 08:36 8.99817 120.12997 30100 ft 452 kts 136°
2026-04-30 08:36 8.97496 120.15168 30329 ft 454 kts 136°
2026-04-30 08:36 8.95134 120.17378 30564 ft 456 kts 136°
2026-04-30 08:36 8.92807 120.19553 30874 ft 455 kts 136°
2026-04-30 08:37 8.90460 120.21745 31231 ft 454 kts 136°
2026-04-30 08:37 8.88126 120.23927 31580 ft 452 kts 136°
2026-04-30 08:37 8.85783 120.26116 31911 ft 451 kts 136°
2026-04-30 08:37 8.83495 120.28254 32225 ft 450 kts 136°
2026-04-30 08:38 8.81168 120.30428 32537 ft 449 kts 136°
2026-04-30 08:38 8.78874 120.32571 32837 ft 448 kts 136°
2026-04-30 08:38 8.76573 120.34720 33129 ft 447 kts 136°
2026-04-30 08:38 8.74268 120.36872 33388 ft 447 kts 136°
2026-04-30 08:39 8.71976 120.39013 33609 ft 447 kts 136°
2026-04-30 08:39 8.69648 120.41187 33818 ft 448 kts 136°
2026-04-30 08:39 8.67339 120.43342 34029 ft 449 kts 136°
2026-04-30 08:39 8.65042 120.45486 34237 ft 449 kts 136°
2026-04-30 08:40 8.62703 120.47668 34439 ft 450 kts 136°
2026-04-30 08:40 8.60379 120.49836 34630 ft 450 kts 136°
2026-04-30 08:40 8.58072 120.51988 34813 ft 451 kts 136°
2026-04-30 08:41 8.53426 120.56320 34875 ft 452 kts 136°
2026-04-30 08:41 8.48752 120.60677 34874 ft 452 kts 136°
2026-04-30 08:42 8.44084 120.65025 34870 ft 452 kts 136°
2026-04-30 08:42 8.39419 120.69371 34865 ft 452 kts 136°
2026-04-30 08:43 8.34754 120.73714 34859 ft 452 kts 136°
2026-04-30 08:43 8.30104 120.78043 34856 ft 452 kts 136°
2026-04-30 08:44 8.25416 120.82404 34855 ft 452 kts 136°
2026-04-30 08:44 8.20752 120.86742 34855 ft 452 kts 136°
2026-04-30 08:45 8.16102 120.91067 34855 ft 452 kts 136°
2026-04-30 08:45 8.11435 120.95404 34855 ft 452 kts 136°
2026-04-30 08:46 8.06793 120.99719 34855 ft 452 kts 136°
2026-04-30 08:46 8.02130 121.04053 34855 ft 452 kts 136°
2026-04-30 08:47 7.97440 121.08409 34855 ft 452 kts 136°
2026-04-30 08:47 7.92765 121.12749 34855 ft 452 kts 137°
2026-04-30 08:48 7.88114 121.17065 34855 ft 451 kts 137°
2026-04-30 08:48 7.83463 121.21379 34855 ft 450 kts 137°
2026-04-30 08:49 7.78796 121.25706 34855 ft 450 kts 137°
2026-04-30 08:49 7.74148 121.30014 34855 ft 450 kts 137°
2026-04-30 08:50 7.69501 121.34321 34855 ft 450 kts 137°
2026-04-30 08:50 7.64848 121.38632 34855 ft 450 kts 137°
2026-04-30 08:51 7.60208 121.42931 34855 ft 450 kts 137°
2026-04-30 08:51 7.55576 121.47219 34855 ft 450 kts 137°
2026-04-30 08:52 7.50915 121.51535 34855 ft 450 kts 137°
2026-04-30 08:52 7.46258 121.55844 34855 ft 450 kts 137°
2026-04-30 08:53 7.41617 121.60138 34855 ft 450 kts 137°
2026-04-30 08:53 7.37009 121.64401 34855 ft 450 kts 137°
2026-04-30 08:54 7.32380 121.68681 34855 ft 450 kts 137°
2026-04-30 08:54 7.27735 121.72974 34855 ft 450 kts 137°
2026-04-30 08:55 7.23069 121.77286 34855 ft 450 kts 137°
2026-04-30 08:55 7.18429 121.81574 34855 ft 450 kts 137°
2026-04-30 08:56 7.13779 121.85869 34855 ft 450 kts 137°
2026-04-30 08:56 7.09126 121.90166 34855 ft 450 kts 137°
2026-04-30 08:57 7.04472 121.94464 34855 ft 449 kts 137°
2026-04-30 08:57 6.99849 121.98771 34852 ft 449 kts 134°
2026-04-30 08:58 6.96134 122.03836 34854 ft 448 kts 117°
2026-04-30 08:58 6.94008 122.09753 34855 ft 447 kts 101°
2026-04-30 08:59 6.93636 122.16029 34855 ft 446 kts 84°
2026-04-30 08:59 6.94341 122.22299 34856 ft 446 kts 82°
2026-04-30 09:00 6.95099 122.28535 34855 ft 446 kts 82°
2026-04-30 09:00 6.95829 122.34785 34855 ft 446 kts 83°
2026-04-30 09:01 6.96546 122.41039 34855 ft 446 kts 83°
2026-04-30 09:01 6.97260 122.47286 34855 ft 446 kts 83°
2026-04-30 09:02 6.98331 122.56677 34855 ft 446 kts 83°
2026-04-30 09:02 6.99042 122.62924 34855 ft 446 kts 83°
2026-04-30 09:03 6.99751 122.69160 34855 ft 446 kts 83°
2026-04-30 09:03 7.00462 122.75425 34855 ft 446 kts 83°
2026-04-30 09:04 7.01173 122.81687 34855 ft 446 kts 83°
2026-04-30 09:04 7.01884 122.87959 34855 ft 446 kts 83°
2026-04-30 09:05 7.02592 122.94201 34856 ft 444 kts 83°
2026-04-30 09:05 7.03295 123.00409 34856 ft 442 kts 83°
2026-04-30 09:06 7.04000 123.06625 34855 ft 441 kts 83°
2026-04-30 09:06 7.04697 123.12801 34855 ft 442 kts 84°
2026-04-30 09:07 7.05396 123.19012 34855 ft 442 kts 84°
2026-04-30 09:07 7.06096 123.25246 34855 ft 442 kts 84°
2026-04-30 09:08 7.06794 123.31459 34855 ft 442 kts 84°
2026-04-30 09:08 7.07492 123.37670 34855 ft 442 kts 84°
2026-04-30 09:09 7.08187 123.43871 34855 ft 442 kts 84°
2026-04-30 09:09 7.08882 123.50074 34855 ft 442 kts 84°
2026-04-30 09:10 7.09577 123.56281 34855 ft 442 kts 84°
2026-04-30 09:10 7.10243 123.62238 34855 ft 442 kts 84°
2026-04-30 09:11 7.10902 123.68146 34854 ft 442 kts 84°
2026-04-30 09:11 7.11556 123.74016 34839 ft 442 kts 84°
2026-04-30 09:12 7.11871 123.76842 34621 ft 442 kts 84°
2026-04-30 09:12 7.12243 123.80182 34348 ft 440 kts 84°
2026-04-30 09:12 7.12585 123.83260 34095 ft 437 kts 84°
2026-04-30 09:12 7.12924 123.86306 33843 ft 435 kts 84°
2026-04-30 09:13 7.13263 123.89353 33557 ft 434 kts 84°
2026-04-30 09:13 7.13594 123.92331 33070 ft 435 kts 84°
2026-04-30 09:13 7.13934 123.95383 32353 ft 438 kts 84°
2026-04-30 09:13 7.14273 123.98439 31532 ft 443 kts 84°
2026-04-30 09:14 7.14615 124.01517 30674 ft 448 kts 84°
2026-04-30 09:14 7.14958 124.04612 30001 ft 448 kts 84°
2026-04-30 09:14 7.15303 124.07726 29313 ft 448 kts 84°
2026-04-30 09:14 7.15652 124.10877 28605 ft 448 kts 84°
2026-04-30 09:15 7.15992 124.13950 27932 ft 447 kts 84°
2026-04-30 09:15 7.16338 124.17086 27326 ft 445 kts 84°
2026-04-30 09:15 7.16655 124.19948 26807 ft 441 kts 84°
2026-04-30 09:15 7.17079 124.23109 26246 ft 437 kts 83°
2026-04-30 09:16 7.17526 124.26144 25724 ft 433 kts 82°
2026-04-30 09:16 7.17974 124.29153 25214 ft 428 kts 82°
2026-04-30 09:16 7.18417 124.32117 24710 ft 424 kts 82°
2026-04-30 09:16 7.18851 124.35029 24217 ft 420 kts 83°
2026-04-30 09:17 7.19285 124.37954 23721 ft 416 kts 83°
2026-04-30 09:17 7.19707 124.40797 23236 ft 412 kts 83°
2026-04-30 09:17 7.20133 124.43670 22743 ft 409 kts 83°
2026-04-30 09:17 7.20545 124.46449 22264 ft 406 kts 83°
2026-04-30 09:18 7.20966 124.49295 21771 ft 403 kts 83°
2026-04-30 09:18 7.21381 124.52100 21286 ft 401 kts 83°
2026-04-30 09:18 7.21792 124.54877 20796 ft 398 kts 83°
2026-04-30 09:18 7.22193 124.57594 20307 ft 397 kts 83°
2026-04-30 09:19 7.22599 124.60339 19805 ft 395 kts 83°
2026-04-30 09:19 7.23005 124.63090 19299 ft 394 kts 82°
2026-04-30 09:19 7.23409 124.65824 18793 ft 393 kts 83°
2026-04-30 09:19 7.23811 124.68554 18290 ft 392 kts 83°
2026-04-30 09:20 7.24208 124.71244 17792 ft 390 kts 82°
2026-04-30 09:20 7.24609 124.73963 17294 ft 389 kts 82°
2026-04-30 09:20 7.25007 124.76663 16798 ft 388 kts 82°
2026-04-30 09:20 7.25410 124.79395 16298 ft 386 kts 82°
2026-04-30 09:21 7.25804 124.82076 15807 ft 385 kts 82°
2026-04-30 09:21 7.26197 124.84747 15308 ft 383 kts 82°
2026-04-30 09:21 7.26591 124.87427 14778 ft 383 kts 82°
2026-04-30 09:21 7.26982 124.90093 14252 ft 382 kts 82°
2026-04-30 09:22 7.27372 124.92750 13728 ft 382 kts 81°
2026-04-30 09:22 7.27757 124.95373 13210 ft 381 kts 81°
2026-04-30 09:22 7.28144 124.98002 12699 ft 379 kts 81°
2026-04-30 09:22 7.28529 125.00632 12190 ft 378 kts 81°
2026-04-30 09:23 7.28913 125.03243 11686 ft 376 kts 81°
2026-04-30 09:23 7.29297 125.05853 11190 ft 374 kts 81°
2026-04-30 09:23 7.29674 125.08420 10704 ft 372 kts 80°
2026-04-30 09:23 7.30054 125.11013 10214 ft 370 kts 80°
2026-04-30 09:24 7.30430 125.13574 9731 ft 367 kts 80°
2026-04-30 09:24 7.30801 125.16104 9365 ft 361 kts 80°
2026-04-30 09:24 7.31163 125.18580 9064 ft 353 kts 80°
2026-04-30 09:24 7.31520 125.21021 8695 ft 349 kts 80°
2026-04-30 09:25 7.31871 125.23422 8371 ft 342 kts 80°
2026-04-30 09:25 7.32212 125.25748 8089 ft 336 kts 80°
2026-04-30 09:25 7.32551 125.28070 7872 ft 327 kts 80°
2026-04-30 09:25 7.32878 125.30306 7584 ft 321 kts 80°
2026-04-30 09:26 7.33200 125.32513 7275 ft 317 kts 80°
2026-04-30 09:26 7.33519 125.34693 6973 ft 312 kts 80°
2026-04-30 09:26 7.33717 125.36843 6657 ft 310 kts 93°
2026-04-30 09:26 7.33003 125.38880 6485 ft 303 kts 126°
2026-04-30 09:27 7.31420 125.40201 6289 ft 295 kts 157°
2026-04-30 09:27 7.29449 125.40707 6035 ft 290 kts 172°
2026-04-30 09:27 7.27488 125.40967 5730 ft 288 kts 173°
2026-04-30 09:27 7.25494 125.41258 5501 ft 283 kts 171°
2026-04-30 09:28 7.23588 125.41597 5494 ft 274 kts 169°
2026-04-30 09:28 7.21782 125.41955 5488 ft 261 kts 168°
2026-04-30 09:28 7.20061 125.42312 5426 ft 250 kts 168°
2026-04-30 09:28 7.18476 125.42645 5227 ft 246 kts 168°
2026-04-30 09:29 7.16743 125.43011 5000 ft 242 kts 168°
2026-04-30 09:29 7.15114 125.43355 4785 ft 238 kts 168°
2026-04-30 09:29 7.13485 125.43699 4632 ft 230 kts 168°
2026-04-30 09:29 7.11954 125.44022 4441 ft 221 kts 168°
2026-04-30 09:30 7.10447 125.44340 4168 ft 215 kts 168°
2026-04-30 09:30 7.09027 125.44640 3996 ft 204 kts 168°
2026-04-30 09:30 7.07699 125.44926 3971 ft 185 kts 164°
2026-04-30 09:30 7.06636 125.45526 3921 ft 168 kts 130°
2026-04-30 09:31 7.05996 125.46485 3626 ft 164 kts 116°
2026-04-30 09:31 7.05476 125.47509 3268 ft 165 kts 114°
2026-04-30 09:31 7.04961 125.48543 2947 ft 165 kts 114°
2026-04-30 09:31 7.04439 125.49561 2663 ft 160 kts 115°
2026-04-30 09:32 7.03919 125.50552 2316 ft 161 kts 116°
2026-04-30 09:32 7.03390 125.51546 2201 ft 160 kts 116°
2026-04-30 09:32 7.02908 125.52525 2193 ft 160 kts 102°
2026-04-30 09:32 7.03052 125.53624 2188 ft 156 kts 59°
2026-04-30 09:33 7.03713 125.54480 2204 ft 156 kts 45°
2026-04-30 09:33 7.04468 125.55257 2197 ft 153 kts 44°
2026-04-30 09:33 7.05201 125.56038 2065 ft 153 kts 46°
2026-04-30 09:33 7.05819 125.56734 1885 ft 151 kts 47°
2026-04-30 09:34 7.06521 125.57549 1682 ft 151 kts 48°
2026-04-30 09:34 7.07230 125.58380 1474 ft 150 kts 48°
2026-04-30 09:34 7.07907 125.59173 1275 ft 150 kts 48°
2026-04-30 09:34 7.08589 125.59968 1071 ft 149 kts 48°
2026-04-30 09:35 7.09271 125.60761 867 ft 149 kts 48°
2026-04-30 09:35 7.09947 125.61548 664 ft 148 kts 48°
2026-04-30 09:35 7.10630 125.62340 453 ft 148 kts 48°
2026-04-30 09:35 7.11294 125.63111 276 ft 146 kts 49°
2026-04-30 09:36 7.11956 125.63883 113 ft 141 kts 47°
2026-04-30 09:36 7.12523 125.64543 104 ft 100 kts 49°
2026-04-30 09:36 7.12579 125.64610 104 ft 94 kts 49°
2026-04-30 09:37 7.12769 125.64831 104 ft 68 kts 49°
2026-04-30 09:37 7.12974 125.65069 104 ft 24 kts 46°
2026-04-30 09:38 7.13017 125.65112 104 ft 2 kts 141°
2026-04-30 09:38 7.12983 125.65082 104 ft 11 kts 228°
2026-04-30 09:38 7.12915 125.65000 104 ft 16 kts 230°
2026-04-30 09:38 7.12889 125.64924 104 ft 16 kts 292°
2026-04-30 09:39 7.12960 125.64853 104 ft 8 kts 320°
2026-04-30 09:39 7.13004 125.64809 104 ft 9 kts 301°
2026-04-30 09:39 7.12995 125.64750 104 ft 9 kts 235°
2026-04-30 09:39 7.12983 125.64700 104 ft 7 kts 296°
2026-04-30 09:40 7.13019 125.64664 104 ft 3 kts 320°
2026-04-30 09:40 7.13031 125.64653 104 ft 0 kts 319°